[[{"header":{"parameterUnit":"m.s-1","parameterCategory":1,"la1":30.2991,"la2":30.254,"lo1":-89.0895,"lo2":-89.0444,"dy":0.0017,"dx":0.0017,"nx":28,"ny":28,"refTime":"2025-07-22T21:00:00:Z","depth":0,"parameterNumber":2,"parameterNumberName":"U-component_of_WINDS"},"data":[0,0,0,0,0,0,0,0,0,0,0,0,0,0,0,0,0,0,0,0,0,0,0,0,0,0,0,0,0,0,0,0,0,0,0,0,0,0,0,0,0,0,0,0,0,0,0,0,0,0,0,0,0,0,0,0,0,0,0.544,0.544,0,0.5516,0.5517,0.5518,0.5521,0.552,0.5519,0.5519,0.56,0.5603,0.5606,0,0,0,0,0,0,0,0,0,0,0,0,0,0.5302,0.5305,0.5439,0.544,0.5441,0.5516,0.5517,0.5518,0.5521,0.552,0.5519,0.5518,0.5599,0.5603,0.5606,0,0,0,0,0,0,0,0,0,0,0,0,0,0.5368,0.5305,0.5439,0.5452,0.5454,0.5516,0.5517,0.5518,0.5522,0.552,0.5519,0.5518,0.5598,0.5602,0.5607,0.5662,0,0,0.5621,0.5623,0,0,0,0,0,0,0,0,0.5365,0.5374,0.5449,0.5451,0.5453,0.5508,0.5498,0.5567,0.5522,0.5496,0.5519,0.5517,0.5571,0.5577,0.5595,0.5666,0.5669,0.5621,0.5624,0.5626,0.5627,0,0,0,0,0,0,0,0.536,0.537,0.547,0.545,0.5453,0.5456,0.5464,0.5511,0.554,0.5498,0.5499,0.5507,0.5572,0.559,0.5597,0.5671,0.5621,0.5625,0.5628,0.563,0.5795,0.5797,0,0,0,0,0,0,0.5352,0.5366,0.5467,0.5472,0.5405,0.5459,0.5468,0.5492,0.554,0.5546,0.5508,0.5507,0.5583,0.5592,0.56,0.567,0.5626,0.563,0.5633,0.5793,0.5795,0.5797,0,0,0,0,0,0,0.5349,0.5361,0.5464,0.5419,0.5433,0.5463,0.5489,0.5494,0.5513,0.5547,0.5553,0.5522,0.5583,0.5593,0.5647,0.5673,0.5632,0.5636,0.5791,0.5794,0.5796,0.581,0,0,0,0,0,0,0.5345,0.536,0.538,0.542,0.5435,0.5509,0.5491,0.5496,0.552,0.5519,0.5562,0.5567,0.5582,0.564,0.5652,0.5679,0.564,0.5789,0.5793,0.5796,0.5808,0.5813,0.5817,0,0,0,0,0,0.534,0.5381,0.5381,0.5393,0.546,0.551,0.5519,0.5535,0.5522,0.5544,0.5566,0.5566,0.5668,0.5646,0.5659,0.5687,0.5788,0.5792,0.5795,0.5805,0.5812,0.5817,0,0,0,0,0,0,0.5344,0.5386,0.5387,0.5441,0.5472,0.5511,0.5538,0.554,0.5577,0.5574,0.5593,0.5603,0.5657,0.5677,0.5652,0.5745,0.5727,0.5733,0.573,0.5736,0.5741,0.5736,0.5644,0,0,0,0,0,0.5351,0.5386,0.5422,0.5466,0.5482,0.5507,0.553,0.5539,0.5572,0.5586,0.5613,0.5646,0.5686,0.5712,0.5751,0.581,0.5821,0.5836,0.5841,0.5845,0.5851,0.5888,0.5896,0.581,0.581,0.581,0,0,0.5366,0.5393,0.5415,0.5468,0.5493,0.5532,0.5518,0.5559,0.5589,0.5592,0.5646,0.5666,0.5705,0.5763,0.579,0.5782,0.5877,0.585,0.5853,0.5857,0.5892,0.5901,0.5908,0.5812,0.5812,0.5811,0,0,0.5413,0.5436,0.5477,0.5503,0.5541,0.5558,0.5568,0.5607,0.5621,0.5675,0.5679,0.5716,0.5783,0.5812,0.5835,0.5896,0.5899,0.5908,0.5934,0.597,0.5977,0.5983,0.6007,0.6016,0.5914,0.5914,0.5914,0,0.5427,0.5484,0.5498,0.554,0.5565,0.5569,0.5613,0.5637,0.5686,0.5704,0.5694,0.5781,0.5807,0.5874,0.5889,0.5907,0.5921,0.5904,0.5974,0.598,0.5986,0.601,0.6019,0.5915,0.5915,0.5915,0.5914,0,0.5501,0.5541,0.557,0.5617,0.5645,0.5687,0.571,0.5737,0.5744,0.5763,0.5819,0.5851,0.5898,0.5914,0.5921,0.5982,0.5976,0.597,0.5952,0.5996,0.6019,0.6027,0.5916,0.5916,0.5916,0.5915,0,0,0.5553,0.5608,0.5619,0.5642,0.5686,0.5718,0.5761,0.5806,0.583,0.5864,0.5904,0.5962,0.5957,0.5984,0.5995,0.6025,0.6076,0.6016,0.6017,0.6028,0.6149,0.6155,0.6165,0.6077,0.6079,0.608,0.6147,0,0.5607,0.5683,0.5699,0.5766,0.5805,0.5811,0.5849,0.5882,0.5901,0.5938,0.596,0.6002,0.5991,0.6007,0.6038,0.6063,0.6101,0.6058,0.6116,0.6118,0.6108,0.6177,0.6183,0.6244,0.6155,0.6157,0.6158,0,0.568,0.5716,0.5788,0.5829,0.5846,0.588,0.5924,0.5958,0.5996,0.6008,0.6039,0.6048,0.6096,0.6075,0.6144,0.6114,0.6139,0.6155,0.6158,0.6166,0.6142,0.6189,0.6264,0.6274,0.6171,0.617,0.6169,0,0.5714,0.5781,0.5833,0.5852,0.59,0.5925,0.5946,0.5983,0.601,0.6049,0.6067,0.6111,0.6136,0.6171,0.6192,0.6174,0.6261,0.624,0.6275,0.6275,0.6294,0.6293,0.6376,0.6306,0.6306,0.6306,0.6305,0,0.5774,0.5818,0.5849,0.5881,0.5932,0.595,0.6,0.6022,0.6055,0.6093,0.6101,0.6137,0.6161,0.6202,0.6219,0.6275,0.6286,0.6299,0.6303,0.63,0.6298,0.6318,0.6315,0.6308,0.6308,0.6307,0.6307,0,0.5821,0.5843,0.5901,0.5942,0.5954,0.599,0.6026,0.6059,0.6079,0.6128,0.614,0.6172,0.6221,0.6245,0.6305,0.6316,0.6381,0.6381,0.6368,0.637,0.6404,0.6402,0.6505,0.6521,0.6437,0.6438,0.6439,0,0.5859,0.5893,0.5939,0.5965,0.5987,0.6028,0.6056,0.6076,0.6105,0.6153,0.6181,0.6229,0.6269,0.6347,0.6377,0.6424,0.6427,0.646,0.6434,0.643,0.6431,0.643,0.6435,0.6465,0.6466,0.6466,0.6467,0,0.5926,0.5935,0.5974,0.6018,0.6051,0.6087,0.6122,0.6144,0.617,0.6202,0.6252,0.6283,0.6345,0.6394,0.6444,0.6468,0.6474,0.6475,0.6486,0.6483,0.6476,0.6483,0.6384,0.6473,0.6472,0.6472,0.6471,0.6471,0.5971,0.6003,0.6041,0.6085,0.6114,0.6147,0.6181,0.6206,0.6247,0.6298,0.6308,0.6361,0.6401,0.6468,0.6494,0.6538,0.6531,0.6546,0.6551,0.6555,0.6558,0.6467,0.6547,0.6547,0.6547,0.6546,0.6546,0,0.6041,0.6065,0.6106,0.6155,0.6191,0.6191,0.6231,0.6262,0.6308,0.6344,0.6384,0.6442,0.6491,0.6525,0.6575,0.6604,0.6607,0.6616,0.6616,0.6622,0.656,0.6546,0.6613,0.6613,0.6613,0.6613,0.6613,0.6613,0.6081,0.6136,0.615,0.6221,0.6246,0.6297,0.6321,0.6353,0.6382,0.6447,0.6487,0.6508,0.6545,0.6598,0.6644,0.6653,0.6672,0.6682,0.6691,0.6633,0.6626,0.6619,0.6607,0.6685,0.6685,0.6751,0.6751,0.6752]},{"header":{"parameterUnit":"m.s-1","parameterCategory":1,"la1":30.2991,"la2":30.254,"lo1":-89.0895,"lo2":-89.0444,"dy":0.0017,"dx":0.0017,"nx":28,"ny":28,"refTime":"2025-07-22T21:00:00:Z","depth":0,"parameterNumber":3,"parameterNumberName":"V-component_of_WINDS"},"data":[0,0,0,0,0,0,0,0,0,0,0,0,0,0,0,0,0,0,0,0,0,0,0,0,0,0,0,0,0,0,0,0,0,0,0,0,0,0,0,0,0,0,0,0,0,0,0,0,0,0,0,0,0,0,0,0,0,0,-1.3378,-1.3377,0,-1.336,-1.3359,-1.3359,-1.3414,-1.3416,-1.3418,-1.3419,-1.3399,-1.3397,-1.3395,0,0,0,0,0,0,0,0,0,0,0,0,0,-1.3459,-1.3458,-1.3378,-1.3377,-1.3377,-1.336,-1.3359,-1.3359,-1.3414,-1.3416,-1.3418,-1.342,-1.34,-1.3397,-1.3395,0,0,0,0,0,0,0,0,0,0,0,0,0,-1.3431,-1.3457,-1.3378,-1.3403,-1.3405,-1.336,-1.3359,-1.3359,-1.3414,-1.3416,-1.3419,-1.3421,-1.3401,-1.3397,-1.3394,-1.3324,0,0,-1.3385,-1.3383,0,0,0,0,0,0,0,0,-1.3432,-1.3428,-1.3399,-1.3401,-1.3403,-1.3392,-1.3381,-1.3347,-1.3413,-1.341,-1.3419,-1.3422,-1.3394,-1.3392,-1.3383,-1.3323,-1.3322,-1.3384,-1.3382,-1.3381,-1.338,0,0,0,0,0,0,0,-1.3434,-1.3429,-1.337,-1.3399,-1.3401,-1.3414,-1.3413,-1.3375,-1.3388,-1.3411,-1.3414,-1.3412,-1.3396,-1.3386,-1.3383,-1.3322,-1.3384,-1.3382,-1.338,-1.3378,-1.3206,-1.3203,0,0,0,0,0,0,-1.3433,-1.343,-1.3371,-1.337,-1.3424,-1.3411,-1.3409,-1.3393,-1.3389,-1.3391,-1.341,-1.3414,-1.339,-1.3387,-1.3382,-1.3301,-1.3381,-1.3378,-1.3376,-1.3208,-1.3205,-1.3202,0,0,0,0,0,0,-1.3435,-1.3427,-1.3372,-1.3401,-1.3395,-1.3407,-1.3388,-1.3391,-1.3381,-1.3388,-1.3391,-1.3397,-1.3392,-1.3387,-1.3339,-1.3301,-1.3377,-1.3374,-1.3211,-1.3207,-1.3204,-1.3138,0,0,0,0,0,0,-1.3437,-1.3427,-1.3401,-1.34,-1.3393,-1.3328,-1.3385,-1.3389,-1.3376,-1.3382,-1.3377,-1.3378,-1.3393,-1.3343,-1.3336,-1.3298,-1.3371,-1.3215,-1.321,-1.3205,-1.3143,-1.3132,-1.3122,0,0,0,0,0,-1.3439,-1.3382,-1.3399,-1.3392,-1.336,-1.3326,-1.3322,-1.3341,-1.3372,-1.3346,-1.3351,-1.3379,-1.3306,-1.3338,-1.333,-1.3291,-1.3217,-1.3211,-1.3205,-1.3148,-1.3134,-1.3123,0,0,0,0,0,0,-1.3377,-1.3383,-1.3401,-1.3342,-1.3333,-1.3335,-1.3303,-1.3326,-1.3307,-1.3314,-1.3337,-1.3336,-1.3284,-1.3282,-1.3317,-1.3224,-1.3267,-1.3259,-1.3227,-1.3214,-1.3203,-1.3205,-1.3369,0,0,0,0,0,-1.3357,-1.3329,-1.3335,-1.3282,-1.3277,-1.329,-1.3276,-1.3292,-1.3283,-1.3279,-1.3281,-1.3271,-1.3247,-1.323,-1.3207,-1.3143,-1.3144,-1.3113,-1.3102,-1.3094,-1.3087,-1.3054,-1.3041,-1.3182,-1.3182,-1.3182,0,0,-1.3314,-1.3314,-1.3294,-1.327,-1.3265,-1.3236,-1.3287,-1.3253,-1.3232,-1.3274,-1.323,-1.323,-1.3221,-1.3165,-1.314,-1.3162,-1.3048,-1.3086,-1.3079,-1.3077,-1.3047,-1.3033,-1.3021,-1.3178,-1.3179,-1.318,0,0,-1.3222,-1.3218,-1.3175,-1.3169,-1.3161,-1.3171,-1.316,-1.3159,-1.3161,-1.3117,-1.3149,-1.3123,-1.308,-1.3073,-1.3064,-1.297,-1.2995,-1.2962,-1.2907,-1.2875,-1.2864,-1.2855,-1.2823,-1.2811,-1.2955,-1.2955,-1.2954,0,-1.3169,-1.3127,-1.3149,-1.3114,-1.3103,-1.3141,-1.3098,-1.3091,-1.3075,-1.3067,-1.3092,-1.304,-1.3036,-1.298,-1.2957,-1.2948,-1.2937,-1.2963,-1.2864,-1.2855,-1.2846,-1.2816,-1.2803,-1.2951,-1.2951,-1.2952,-1.2952,0,-1.3064,-1.3034,-1.3,-1.2986,-1.2971,-1.2931,-1.2948,-1.293,-1.2947,-1.2954,-1.2909,-1.2906,-1.2885,-1.2872,-1.2888,-1.2818,-1.2833,-1.286,-1.2905,-1.2828,-1.28,-1.2789,-1.2945,-1.2946,-1.2948,-1.2949,0,0,-1.2931,-1.2931,-1.2919,-1.2914,-1.2908,-1.2886,-1.2848,-1.2828,-1.2813,-1.2801,-1.2771,-1.2735,-1.2761,-1.275,-1.2765,-1.2737,-1.2665,-1.2769,-1.2769,-1.2751,-1.2591,-1.2571,-1.2557,-1.2682,-1.268,-1.2678,-1.2592,0,-1.2842,-1.2779,-1.2799,-1.2735,-1.2709,-1.2745,-1.2713,-1.2706,-1.2712,-1.269,-1.2696,-1.2671,-1.2706,-1.2701,-1.2674,-1.268,-1.2634,-1.2686,-1.2655,-1.2654,-1.2658,-1.2542,-1.2521,-1.2439,-1.2581,-1.2579,-1.2578,0,-1.2729,-1.2714,-1.2649,-1.265,-1.2639,-1.261,-1.2594,-1.2573,-1.2566,-1.2573,-1.2561,-1.2583,-1.2547,-1.2591,-1.2542,-1.2577,-1.2566,-1.2567,-1.2564,-1.2563,-1.2612,-1.2539,-1.2414,-1.2402,-1.256,-1.2562,-1.2563,0,-1.2641,-1.2604,-1.2561,-1.2555,-1.2555,-1.2534,-1.2533,-1.2529,-1.2516,-1.2502,-1.2494,-1.2475,-1.2465,-1.2451,-1.2467,-1.2497,-1.2416,-1.2461,-1.2421,-1.2421,-1.2403,-1.2404,-1.2276,-1.2393,-1.2393,-1.2394,-1.2394,0,-1.2539,-1.2498,-1.2522,-1.2495,-1.2451,-1.2474,-1.2429,-1.2431,-1.2428,-1.2403,-1.2432,-1.2408,-1.243,-1.2408,-1.242,-1.2379,-1.2374,-1.2378,-1.2382,-1.2376,-1.2376,-1.237,-1.2377,-1.239,-1.2391,-1.2392,-1.2392,0,-1.2433,-1.2448,-1.2403,-1.2407,-1.2407,-1.2374,-1.2378,-1.2353,-1.2362,-1.2329,-1.2323,-1.2336,-1.2311,-1.2326,-1.23,-1.2309,-1.2256,-1.2267,-1.2258,-1.2262,-1.2222,-1.2226,-1.2085,-1.2069,-1.2196,-1.2194,-1.2193,0,-1.2368,-1.2338,-1.2339,-1.2325,-1.2322,-1.2298,-1.2286,-1.2307,-1.2293,-1.2285,-1.2261,-1.224,-1.2224,-1.2183,-1.219,-1.2171,-1.2183,-1.2135,-1.218,-1.2176,-1.2184,-1.2186,-1.2184,-1.2126,-1.2124,-1.2123,-1.2122,0,-1.2252,-1.2261,-1.2242,-1.2227,-1.2211,-1.22,-1.219,-1.2177,-1.2199,-1.2181,-1.2157,-1.2145,-1.212,-1.2098,-1.2083,-1.2081,-1.2105,-1.2108,-1.2098,-1.2092,-1.2089,-1.2092,-1.2235,-1.2111,-1.2112,-1.2113,-1.2114,-1.2114,-1.2165,-1.2141,-1.2138,-1.2117,-1.2113,-1.2104,-1.2082,-1.2088,-1.2069,-1.2051,-1.2064,-1.2036,-1.2032,-1.2013,-1.2009,-1.1988,-1.2007,-1.1992,-1.1989,-1.1985,-1.198,-1.2092,-1.1985,-1.1985,-1.1985,-1.1985,-1.1986,0,-1.2052,-1.2052,-1.2033,-1.202,-1.2003,-1.2028,-1.202,-1.2004,-1.1979,-1.1974,-1.1958,-1.1931,-1.191,-1.1916,-1.1898,-1.188,-1.189,-1.1874,-1.1876,-1.1876,-1.1963,-1.1974,-1.1866,-1.1866,-1.1866,-1.1866,-1.1866,-1.1866,-1.1991,-1.1951,-1.196,-1.1919,-1.192,-1.1893,-1.1887,-1.1879,-1.1875,-1.1843,-1.1827,-1.1831,-1.183,-1.1813,-1.1795,-1.1798,-1.179,-1.177,-1.1776,-1.1858,-1.187,-1.1881,-1.1892,-1.1768,-1.1768,-1.1692,-1.1691,-1.169]}]]